Location: Temagami
(47.0645°N, 79.7909°W)
Time: 18:05:18
(UTC-04:00)

ISS - Visible Passes

Search period start: 20 July 2019 00:00
Search period end: 30 July 2019 00:00
Orbit: 409 x 418 km, 51.6° (Epoch: 20 July)

Date Brightness Start Highest point End Pass type
(mag) Time Alt. Az. Time Alt. Az. Time Alt. Az.
20 Jul -2.2 00:03:30 10° WNW 00:06:39 37° N 00:09:47 10° ENE visible
20 Jul -2.7 01:40:32 10° WNW 01:43:46 45° NNE 01:46:03 17° E visible
20 Jul -2.1 03:17:17 10° WNW 03:18:35 21° W 03:18:35 21° W visible
20 Jul -3.7 21:37:09 10° SW 21:40:26 58° SSE 21:43:43 10° ENE visible
20 Jul -2.5 23:14:01 10° W 23:17:13 43° NNW 23:20:26 10° ENE visible
21 Jul -2.4 00:51:11 10° WNW 00:54:21 38° N 00:56:14 20° ENE visible
21 Jul -1.7 02:27:55 10° WNW 02:28:59 19° WNW 02:28:59 19° WNW visible
21 Jul -2.9 22:24:32 10° W 22:27:49 53° NNW 22:31:07 10° ENE visible
22 Jul -2.2 00:01:47 10° WNW 00:04:55 36° N 00:07:44 12° ENE visible
22 Jul -2.3 01:38:35 10° WNW 01:40:31 31° NW 01:40:31 31° NW visible
22 Jul -2.2 23:12:19 10° WNW 23:15:27 36° N 23:18:34 10° ENE visible
23 Jul -3.0 00:49:15 10° WNW 00:52:21 52° N 00:52:21 52° N visible
23 Jul -2.3 22:22:49 10° W 22:25:59 38° N 22:29:09 10° ENE visible
23 Jul -2.6 23:59:54 10° WNW 00:03:07 43° NNE 00:04:19 29° ENE visible
24 Jul -1.1 01:36:37 10° WNW 01:37:07 14° WNW 01:37:07 14° WNW visible
24 Jul -2.6 21:33:17 10° W 21:36:31 45° NNW 21:39:46 10° ENE visible
24 Jul -2.4 23:10:30 10° WNW 23:13:39 37° N 23:16:21 13° ENE visible
25 Jul -2.3 00:47:13 10° WNW 00:49:10 32° WNW 00:49:10 32° WNW visible
25 Jul -2.2 22:21:01 10° WNW 22:24:08 35° N 22:27:16 10° ENE visible
25 Jul -3.6 23:57:52 10° WNW 00:01:11 66° NNE 00:01:15 66° NNE visible
26 Jul -3.0 23:08:29 10° WNW 23:11:45 50° NNE 23:13:22 25° E visible
27 Jul -1.4 00:45:15 10° WNW 00:46:11 17° W 00:46:11 17° W visible
27 Jul -2.6 22:19:04 10° WNW 22:22:16 41° N 22:25:27 10° E visible
27 Jul -3.1 23:55:46 10° WNW 23:58:20 46° W 23:58:20 46° W visible
28 Jul -2.4 21:29:36 10° WNW 21:32:45 37° N 21:35:53 10° ENE visible
28 Jul -3.8 23:06:21 10° WNW 23:09:42 84° NNE 23:10:31 49° ESE visible
29 Jul -3.4 22:16:56 10° WNW 22:20:16 60° NNE 22:22:43 17° E visible
29 Jul -1.9 23:53:51 10° W 23:55:32 22° WSW 23:55:32 22° WSW visible
